ONEWEB-0028, 45140

Orbit data source: Space-Track

ONEWEB-0028, 45140 is a payload satellite owned by One Web (UK) in LEO that was launched on Thu, 06 Feb 2020 UTC via a SOYUZ-2-1B launch vehicle from the Tyuratam Missile And Space Complex (TTMTR). Payload-class satellites include a variety of spacecraft equipped with specific instruments for various scientific and technological missions. These include communications satellites like Starlink; space stations such as the ISS; scientific satellites like the Hubble; Earth observation satellites from companies like Planet Labs, Umbra, and HawkEye 360; GPS; miniature CubeSats for education and research; and military/defense satellites.

Loading next visibility...
Identifier
45140, 2020-008K
Orbit
LEO
Country
Flag of UKUK
Related business
Manufacturer
One Web
Mission
Operational Commercial Communications
Bus & Motor
ARROW, Unknown motor
Mass
148 kg wet, ~140 kg dry
Launch date (UTC)
2020-02-06 (6 years ago)
Launch vehicle
SOYUZ-2-1B
Launch site
Tyuratam Missile And Space Complex (TTMTR)
Object type
Payload
Rocket body
Debris
Shape & HBR
Trap Box + 2 Pan, 6.7 m
Radar Cross Section
3.464 m², Large (>1 m²)

Expand to show TLE details & history
Last TLE update: 9 hours ago

TLE from 9 hours ago
0 ONEWEB-0028
1 45140U 20008K   26035.05376200 -.00000549  00000-0 -15862-2 0  9997
2 45140  87.8811  47.5668 0001897  71.3095 288.8239 13.11416175291175
Epoch: 2026-02-04T01:17Z
TLE epoch observation values (Epoch: 2026-02-04T01:17:25.036Z)
Latitude
-0.00001°
Longitude
-106.01338°
Altitude
1,220.11 km
Speed
7.245 km/s
True Right ascension
03h 10m 16s
True Declination
0° 00' 00"
Sunlit
Object was in daylight at epoch
Visualization orbit readout
Latitude
Unknown
Longitude
Unknown
Altitude
Unknown
Speed
Unknown
Apparent Right ascension
Unknown
Apparent Declination
Unknown
Sunlit
N/A
Visualization observer readout
Local Sidereal Time
11:46:04
Azimuth
Unknown
Elevation
Unknown
Doppler factor
Unknown
Orbital elements
Apogee altitude
1,216.244 km
Perigee altitude
1,213.364 km
Semi-major axis
7,592.941 km
Eccentricity
0.00019
Inclination
87.8811°
RAAN
47.5668°
Arg. of periapsis
71.3095°
True anomaly
288.80332°
Mean anomaly
288.8239°
Eccentric anomaly
288.81361°
Mean motion
3.28041 °/min
Orbital period
109.74 mins
BSTAR
-0.0015862
Loading maneuver chart data...
Computing Atmospheric mass density...
Loading historical data...
Loading historical data...
Loading historical data...
Loading historical data...
Loading historical data...
Loading historical data...
Loading historical data...

Documentation

Showing up to 5 results
|